Regional Weather Roundup
Issued by NWS

Home | Current Version | Previous Version | Graphics & Text | Print | Product List | Glossary On
Versions: 1 2 3 4 5 6 7 8 9 10 11 12 13 14 15 16 17 18 19 20 21 22 23 24 25 26 27 28 29 30 31 32 33 34 35 36 37 38 39 40 41 42 43 44 45 46 47 48 49 50
000
ASUS43 KLOT 201810
RWRIL

ILLINOIS REGIONAL WEATHER ROUNDUP
NATIONAL WEATHER SERVICE CHICAGO/ROMEOVILLE IL
100 PM CDT SUN APR 20 2014

NOTE: "FAIR" INDICATES FEW OR NO CLOUDS BELOW 12,000 FEET WITH NO
SIGNIFICANT WEATHER AND/OR OBSTRUCTIONS TO VISIBILITY.

* THESE STATIONS ARE NOT UNDER NWS QUALITY CONTROL. THEY ALSO MAY NOT
  REPORT WEATHER SUCH AS PRECIPITATION OR FOG.

ILZ001-002-007-009-015-016-024-201900-
NORTHWEST ILLINOIS

CITY           SKY/WX    TMP DP  RH WIND       PRES   REMARKS
MOLINE         MOSUNNY   79  44  28 SW16G22   30.08F
6HR MIN TEMP:  51; 6HR MAX TEMP:  80;

STERLING*      SUNNY     79  45  29 SW9G17    30.10F
SAVANNA*       MOSUNNY   79  42  26 S9        30.09F
$$

ILZ003-004-008-010-011-017-018-201900-
NORTH CENTRAL ILLINOIS

CITY           SKY/WX    TMP DP  RH WIND       PRES   REMARKS
ROCKFORD       MOSUNNY   76  42  29 SW12      30.13F
6HR MIN TEMP:  48; 6HR MAX TEMP:  77;

FREEPORT*      MOSUNNY   78  43  29 SW14G20   30.13F
ROCHELLE*      SUNNY     77  39  25 SW13G21   30.12F
DE KALB*       SUNNY     74  41  30 SW14G20   30.15F
PERU*          MOSUNNY   76  43  31 SW12G24   30.13F
$$

ILZ005-006-012>014-019>023-201900-
NORTHEAST ILLINOIS

CITY           SKY/WX    TMP DP  RH WIND       PRES   REMARKS
CHICAGO-OHARE  PTSUNNY   74  38  27 SW17      30.15F
6HR MIN TEMP:  45; 6HR MAX TEMP:  74;

CHICAGO-MIDWAY PTSUNNY   73  39  29 S12       30.16F
6HR MIN TEMP:  47; 6HR MAX TEMP:  73;

AURORA         SUNNY     75  41  29 S13       30.15F
6HR MIN TEMP:  43; 6HR MAX TEMP:  75;

LANSING*       SUNNY     73  37  27 S10G16    30.17F
WAUKEGAN       MOSUNNY   65  39  38 SE12      30.14F
6HR MIN TEMP:  45; 6HR MAX TEMP:  68;

DUPAGE AIRPORT SUNNY     74  40  29 SW13G21   30.15F
6HR MIN TEMP:  45; 6HR MAX TEMP:  74;

KANKAKEE*      MOSUNNY   74  42  32 S12       30.17F
WHEELING       MOSUNNY   73  38  27 SW9       30.17F
6HR MIN TEMP:  47; 6HR MAX TEMP:  74;

MORRIS*        SUNNY     77  29  17 SW9       30.14F
ROMEOVILLE*    SUNNY     73  37  26 SW9G17    30.15F
NORTHERLY ISL    N/A     72  35  25 S8          N/A
$$

LMZ740>746-201900-
SOUTHERN LAKE MICHIGAN

STATION/POSITION SKY/WX   TEMP    WIND        PRES    VSBY  WAVE
                          AIR SEA DIR/SP/G                  HT/PER
                          (F)     (DEG/KT/KT) (MB)    (MI)  (FT/S)
WAUKEGAN HARBOR            49     180/  8/  9 1022.7F
HARRISON CRIB              60     150/ 15/ 16   N/A
BURNHAM HARBOR             72     160/  5/ 15   N/A
CALUMET HARBOR             70     170/  9/ 15 1022.1F
MICHIGAN CITY              67     160/  7/ 11   N/A
$$

ILZ025>027-034>036-040-047-049-050-058-095>099-201900-
WEST-CENTRAL ILLINOIS

CITY           SKY/WX    TMP DP  RH WIND       PRES   REMARKS
QUINCY         SUNNY     78  49  35 W14       30.11F
GALESBURG*     MOSUNNY   76  50  39 S10G18    30.11F
MACOMB*        MOSUNNY   78  45  30 SW12      30.13F
JACKSONVILLE*  SUNNY     79  41  25 S14       30.14F
PITTSFIELD*    SUNNY     78  45  31 SW9       30.14F
$$

ILZ028>032-037-038-041>044-048-051>054-059>061-201900-
CENTRAL ILLINOIS

CITY           SKY/WX    TMP DP  RH WIND       PRES   REMARKS
PONTIAC        PTSUNNY   75  39  27 SW12G18   30.15F
BLOOMINGTON    MOSUNNY   74  40  29 SW8G20    30.16F
DECATUR        SUNNY     75  41  29 SW9       30.17F
PEORIA         MOSUNNY   77  43  29 S12       30.13F
6HR MIN TEMP:  51; 6HR MAX TEMP:  78;

LACON*         MOSUNNY   74  44  33 S12G17    30.13F
LINCOLN*       SUNNY     79  41  25 S8        30.13F
SPRINGFIELD    SUNNY     79  40  24 S13G20    30.15F
6HR MIN TEMP:  54; 6HR MAX TEMP:  79;

TAYLORVILLE    MOSUNNY   73  41  31 S13       30.16F
$$

ILZ033-039-045-046-055>057-062-063-201900-
EAST-CENTRAL ILLINOIS

CITY           SKY/WX    TMP DP  RH WIND       PRES   REMARKS
CHAMPAIGN      MOSUNNY   77  37  23 SW12      30.18F
RANTOUL*       MOSUNNY   77  34  20 CALM      30.18F
MATTOON        MOSUNNY   70  42  36 S9        30.18F
PARIS*         SUNNY     73  40  29 S8        30.20F
$$

ILZ079-100>102-201900-
SOUTHWEST ILLINOIS

CITY           SKY/WX    TMP DP  RH WIND       PRES   REMARKS
ALTON          SUNNY     75  37  25 S12       30.16F
BELLEVILLE     SUNNY     76  44  31 SW7       30.15F
CAHOKIA*       SUNNY     76  42  29 SW7       30.15F
SPARTA*        SUNNY     73  43  33 S7        30.18F
$$

ILZ064>066-069>071-074>076-080>082-084>086-088>090-092>094-201900-
SOUTH-CENTRAL ILLINOIS

CITY           SKY/WX    TMP DP  RH WIND       PRES   REMARKS
CARBONDALE     MOSUNNY   75  45  34 S5        30.17F
6HR MIN TEMP:  45; 6HR MAX TEMP:  75;

CAIRO*         PTSUNNY   78  42  27 W5        30.18F
MARION         PTSUNNY   75  43  31 S12       30.20F
MT. VERNON     CLOUDY   N/A N/A N/A SW6       30.19F
CENTRALIA*       N/A     74  40  28 CALM      30.18F
SALEM*         PTSUNNY   75  46  35 S5        30.19F
METROPOLIS*    PTSUNNY   76  35  22 SE5       30.18F
$$

ILZ067-068-072-073-078-083-087-091-201900-
SOUTHEAST ILLINOIS

CITY           SKY/WX    TMP DP  RH WIND       PRES   REMARKS
FAIRFIELD*     CLOUDY    72  46  40 S6        30.19F
HARRISBURG*    CLOUDY    73  40  30 CALM      30.20F
ROBINSON*      SUNNY     75  41  29 CALM      30.20F
CARMI*         PTSUNNY   74  42  31 S6        30.20F
$$

ABBREVIATIONS USED IN REMARKS
   TC - TEMPERATURE IN CELSIUS
  WCI - WIND CHILL INDEX
   HX - HEAT INDEX
  VSB - VISIBILITY
$$




USA.gov is the U.S. government's official web portal to all federal, state and local government web resources and services.